Time,TemperatureF,DewpointF,PressureIn,WindDirection,WindDirectionDegrees,WindSpeedMPH,WindSpeedGustMPH,Humidity,HourlyPrecipIn,Conditions,Clouds,dailyrainin,SoftwareType,DateUTC
2013-01-18 00:14:00,51.9,17.0,29.81,SW,222,0.0,-999.0,25,-99.99,,,0.00,weatherlink.com 1.10,2013-01-18 07:14:00,
2013-01-18 00:29:00,50.8,17.0,29.81,SW,220,0.0,-999.0,26,-99.99,,,0.00,weatherlink.com 1.10,2013-01-18 07:29:00,
2013-01-18 00:43:00,50.0,17.0,29.81,WSW,247,0.0,-999.0,27,-99.99,,,0.00,weatherlink.com 1.10,2013-01-18 07:43:00,
2013-01-18 00:58:00,49.6,17.0,29.81,WSW,246,0.0,-999.0,27,-99.99,,,0.00,weatherlink.com 1.10,2013-01-18 07:58:00,
2013-01-18 01:13:00,50.3,16.0,29.81,West,264,0.0,-999.0,25,-99.99,,,0.00,weatherlink.com 1.10,2013-01-18 08:13:00,
2013-01-18 01:28:00,50.9,15.0,29.81,West,267,0.0,-999.0,24,-99.99,,,0.00,weatherlink.com 1.10,2013-01-18 08:28:00,
2013-01-18 01:43:00,50.5,16.0,29.81,SW,229,0.0,-999.0,25,-99.99,,,0.00,weatherlink.com 1.10,2013-01-18 08:43:00,
2013-01-18 01:58:00,50.0,15.0,29.81,SW,229,0.0,-999.0,25,-99.99,,,0.00,weatherlink.com 1.10,2013-01-18 08:58:00,
2013-01-18 02:13:00,49.3,16.0,29.81,SW,229,0.0,-999.0,26,-99.99,,,0.00,weatherlink.com 1.10,2013-01-18 09:13:00,
2013-01-18 02:28:00,49.0,15.0,29.81,SW,229,0.0,-999.0,26,-99.99,,,0.00,weatherlink.com 1.10,2013-01-18 09:28:00,
2013-01-18 02:43:00,48.7,15.0,29.81,SW,227,0.0,-999.0,26,-99.99,,,0.00,weatherlink.com 1.10,2013-01-18 09:43:00,
2013-01-18 02:58:00,48.7,15.0,29.80,SW,229,0.0,-999.0,26,-99.99,,,0.00,weatherlink.com 1.10,2013-01-18 09:58:00,
2013-01-18 03:13:00,48.5,17.0,29.80,SW,229,0.0,-999.0,28,-99.99,,,0.00,weatherlink.com 1.10,2013-01-18 10:13:00,
2013-01-18 03:28:00,49.3,16.0,29.80,WSW,239,0.0,-999.0,26,-99.99,,,0.00,weatherlink.com 1.10,2013-01-18 10:28:00,
2013-01-18 03:43:00,49.1,15.0,29.80,SW,229,0.0,-999.0,25,-99.99,,,0.00,weatherlink.com 1.10,2013-01-18 10:43:00,
2013-01-18 03:58:00,48.2,15.0,29.79,SW,217,0.0,-999.0,27,-99.99,,,0.00,weatherlink.com 1.10,2013-01-18 10:58:00,
2013-01-18 04:13:00,48.1,15.0,29.79,SW,217,0.0,-999.0,26,-99.99,,,0.00,weatherlink.com 1.10,2013-01-18 11:13:00,
2013-01-18 04:28:00,48.1,15.0,29.79,SW,217,0.0,-999.0,27,-99.99,,,0.00,weatherlink.com 1.10,2013-01-18 11:28:00,
2013-01-18 04:43:00,47.4,15.0,29.80,SW,217,0.0,-999.0,27,-99.99,,,0.00,weatherlink.com 1.10,2013-01-18 11:43:00,
2013-01-18 04:59:00,47.1,15.0,29.80,SW,216,0.0,-999.0,28,-99.99,,,0.00,weatherlink.com 1.10,2013-01-18 11:59:00,
2013-01-18 05:14:00,47.1,15.0,29.80,SW,216,0.0,-999.0,27,-99.99,,,0.00,weatherlink.com 1.10,2013-01-18 12:14:00,
2013-01-18 05:29:00,48.2,15.0,29.80,SW,222,0.0,-999.0,27,-99.99,,,0.00,weatherlink.com 1.10,2013-01-18 12:29:00,
2013-01-18 05:44:00,46.2,15.0,29.80,SW,232,0.0,-999.0,29,-99.99,,,0.00,weatherlink.com 1.10,2013-01-18 12:44:00,
2013-01-18 05:59:00,46.2,15.0,29.80,SW,227,0.0,-999.0,28,-99.99,,,0.00,weatherlink.com 1.10,2013-01-18 12:59:00,
2013-01-18 06:14:00,45.7,15.0,29.81,SW,226,0.0,-999.0,29,-99.99,,,0.00,weatherlink.com 1.10,2013-01-18 13:14:00,
2013-01-18 06:29:00,45.3,15.0,29.81,SW,230,0.0,-999.0,29,-99.99,,,0.00,weatherlink.com 1.10,2013-01-18 13:29:00,
2013-01-18 06:44:00,45.0,14.0,29.81,SW,233,0.0,-999.0,29,-99.99,,,0.00,weatherlink.com 1.10,2013-01-18 13:44:00,
2013-01-18 06:59:00,45.7,14.0,29.81,SW,217,0.0,-999.0,28,-99.99,,,0.00,weatherlink.com 1.10,2013-01-18 13:59:00,
2013-01-18 07:14:00,46.9,15.0,29.81,North,353,0.0,-999.0,28,-99.99,,,0.00,weatherlink.com 1.10,2013-01-18 14:14:00,
2013-01-18 07:29:00,51.2,15.0,29.81,East,97,3.0,-999.0,24,-99.99,,,0.00,weatherlink.com 1.10,2013-01-18 14:29:00,
2013-01-18 07:44:00,51.9,15.0,29.81,SE,141,7.0,-999.0,23,-99.99,,,0.00,weatherlink.com 1.10,2013-01-18 14:44:00,
2013-01-18 07:59:00,52.8,16.0,29.81,NNE,24,4.0,-999.0,23,-99.99,,,0.00,weatherlink.com 1.10,2013-01-18 14:59:00,
2013-01-18 08:14:00,53.6,15.0,29.82,NE,34,11.0,-999.0,22,-99.99,,,0.00,weatherlink.com 1.10,2013-01-18 15:14:00,
2013-01-18 08:29:00,53.9,16.0,29.82,NE,37,13.0,-999.0,22,-99.99,,,0.00,weatherlink.com 1.10,2013-01-18 15:29:00,
2013-01-18 08:44:00,54.0,16.0,29.83,NE,51,10.0,-999.0,22,-99.99,,,0.00,weatherlink.com 1.10,2013-01-18 15:44:00,
2013-01-18 08:59:00,54.0,17.0,29.83,North,359,3.0,-999.0,23,-99.99,,,0.00,weatherlink.com 1.10,2013-01-18 15:59:00,
2013-01-18 09:14:00,54.7,16.0,29.84,NE,38,4.0,-999.0,22,-99.99,,,0.00,weatherlink.com 1.10,2013-01-18 16:14:00,
2013-01-18 09:29:00,55.6,16.0,29.84,ENE,75,5.0,-999.0,21,-99.99,,,0.00,weatherlink.com 1.10,2013-01-18 16:29:00,
2013-01-18 09:44:00,57.0,17.0,29.84,NE,42,7.0,-999.0,21,-99.99,,,0.00,weatherlink.com 1.10,2013-01-18 16:44:00,
2013-01-18 09:59:00,58.4,17.0,29.85,North,1,3.0,-999.0,20,-99.99,,,0.00,weatherlink.com 1.10,2013-01-18 16:59:00,
2013-01-18 10:14:00,59.5,18.0,29.86,North,357,6.0,-999.0,20,-99.99,,,0.00,weatherlink.com 1.10,2013-01-18 17:14:00,
2013-01-18 10:29:00,60.6,18.0,29.86,North,0,6.0,-999.0,19,-99.99,,,0.00,weatherlink.com 1.10,2013-01-18 17:29:00,
2013-01-18 10:44:00,61.2,18.0,29.85,NE,34,14.0,-999.0,19,-99.99,,,0.00,weatherlink.com 1.10,2013-01-18 17:44:00,
2013-01-18 10:59:00,61.4,19.0,29.85,SSE,150,7.0,-999.0,19,-99.99,,,0.00,weatherlink.com 1.10,2013-01-18 17:59:00,
2013-01-18 11:14:00,62.0,19.0,29.85,North,356,11.0,-999.0,19,-99.99,,,0.00,weatherlink.com 1.10,2013-01-18 18:14:00,
2013-01-18 11:29:00,62.8,18.0,29.84,NE,51,7.0,-999.0,18,-99.99,,,0.00,weatherlink.com 1.10,2013-01-18 18:29:00,
2013-01-18 11:44:00,63.8,19.0,29.84,NNE,24,8.0,-999.0,18,-99.99,,,0.00,weatherlink.com 1.10,2013-01-18 18:44:00,
2013-01-18 11:59:00,65.1,19.0,29.83,NE,35,5.0,-999.0,17,-99.99,,,0.00,weatherlink.com 1.10,2013-01-18 18:59:00,
2013-01-18 12:14:00,66.4,19.0,29.82,SE,124,4.0,-999.0,16,-99.99,,,0.00,weatherlink.com 1.10,2013-01-18 19:14:00,
2013-01-18 12:29:00,67.6,21.0,29.81,East,99,8.0,-999.0,17,-99.99,,,0.00,weatherlink.com 1.10,2013-01-18 19:29:00,
2013-01-18 12:44:00,68.3,19.0,29.80,East,79,1.0,-999.0,15,-99.99,,,0.00,weatherlink.com 1.10,2013-01-18 19:44:00,
2013-01-18 12:59:00,69.8,20.0,29.79,East,90,0.0,-999.0,15,-99.99,,,0.00,weatherlink.com 1.10,2013-01-18 19:59:00,
2013-01-18 13:15:00,71.2,19.0,29.78,SW,227,0.0,-999.0,14,-99.99,,,0.00,weatherlink.com 1.10,2013-01-18 20:15:00,
2013-01-18 13:30:00,72.0,18.0,29.77,West,270,0.0,-999.0,13,-99.99,,,0.00,weatherlink.com 1.10,2013-01-18 20:30:00,
2013-01-18 13:45:00,72.2,20.0,29.77,ESE,121,0.0,-999.0,14,-99.99,,,0.00,weatherlink.com 1.10,2013-01-18 20:45:00,
2013-01-18 14:00:00,73.1,19.0,29.76,North,0,2.0,-999.0,13,-99.99,,,0.00,weatherlink.com 1.10,2013-01-18 21:00:00,
2013-01-18 14:15:00,71.9,20.0,29.76,ENE,73,0.0,-999.0,14,-99.99,,,0.00,weatherlink.com 1.10,2013-01-18 21:15:00,
2013-01-18 14:30:00,71.9,20.0,29.76,NE,44,2.0,-999.0,14,-99.99,,,0.00,weatherlink.com 1.10,2013-01-18 21:30:00,
2013-01-18 14:45:00,71.7,22.0,29.76,North,354,10.0,-999.0,15,-99.99,,,0.00,weatherlink.com 1.10,2013-01-18 21:45:00,
2013-01-18 15:00:00,72.2,19.0,29.76,NE,38,10.0,-999.0,13,-99.99,,,0.00,weatherlink.com 1.10,2013-01-18 22:00:00,
2013-01-18 15:15:00,72.4,19.0,29.75,North,350,10.0,-999.0,13,-99.99,,,0.00,weatherlink.com 1.10,2013-01-18 22:15:00,
2013-01-18 15:30:00,71.9,18.0,29.75,North,0,13.0,-999.0,13,-99.99,,,0.00,weatherlink.com 1.10,2013-01-18 22:30:00,
2013-01-18 15:45:00,71.7,20.0,29.75,North,350,8.0,-999.0,14,-99.99,,,0.00,weatherlink.com 1.10,2013-01-18 22:45:00,
2013-01-18 16:00:00,71.3,20.0,29.74,North,354,7.0,-999.0,14,-99.99,,,0.00,weatherlink.com 1.10,2013-01-18 23:00:00,
2013-01-18 16:15:00,70.5,19.0,29.74,North,353,9.0,-999.0,14,-99.99,,,0.00,weatherlink.com 1.10,2013-01-18 23:15:00,
2013-01-18 16:30:00,70.5,21.0,29.74,NNW,340,10.0,-999.0,15,-99.99,,,0.00,weatherlink.com 1.10,2013-01-18 23:30:00,
2013-01-18 16:45:00,70.0,20.0,29.74,North,352,13.0,-999.0,15,-99.99,,,0.00,weatherlink.com 1.10,2013-01-18 23:45:00,
2013-01-18 17:00:00,69.5,20.0,29.75,North,356,5.0,-999.0,15,-99.99,,,0.00,weatherlink.com 1.10,2013-01-19 00:00:00,
2013-01-18 17:15:00,68.8,19.0,29.75,North,359,2.0,-999.0,15,-99.99,,,0.00,weatherlink.com 1.10,2013-01-19 00:15:00,
2013-01-18 17:30:00,67.6,20.0,29.75,North,354,0.0,-999.0,16,-99.99,,,0.00,weatherlink.com 1.10,2013-01-19 00:30:00,
2013-01-18 17:45:00,65.9,20.0,29.75,North,354,0.0,-999.0,17,-99.99,,,0.00,weatherlink.com 1.10,2013-01-19 00:45:00,
2013-01-18 18:00:00,64.6,20.0,29.75,North,352,0.0,-999.0,18,-99.99,,,0.00,weatherlink.com 1.10,2013-01-19 01:00:00,
2013-01-18 18:15:00,63.6,20.0,29.76,North,354,0.0,-999.0,19,-99.99,,,0.00,weatherlink.com 1.10,2013-01-19 01:15:00,
2013-01-18 18:30:00,62.7,22.0,29.76,NNW,346,0.0,-999.0,21,-99.99,,,0.00,weatherlink.com 1.10,2013-01-19 01:30:00,
2013-01-18 18:45:00,61.7,21.0,29.76,NNW,343,0.0,-999.0,21,-99.99,,,0.00,weatherlink.com 1.10,2013-01-19 01:45:00,
2013-01-18 19:00:00,60.9,25.0,29.76,NNW,343,0.0,-999.0,25,-99.99,,,0.00,weatherlink.com 1.10,2013-01-19 02:00:00,
2013-01-18 19:15:00,59.3,22.0,29.76,NNW,337,0.0,-999.0,24,-99.99,,,0.00,weatherlink.com 1.10,2013-01-19 02:15:00,
2013-01-18 19:30:00,58.9,21.0,29.76,NNW,340,0.0,-999.0,23,-99.99,,,0.00,weatherlink.com 1.10,2013-01-19 02:30:00,
2013-01-18 19:45:00,58.1,20.0,29.76,North,359,0.0,-999.0,23,-99.99,,,0.00,weatherlink.com 1.10,2013-01-19 02:45:00,
2013-01-18 20:00:00,57.3,20.0,29.76,North,353,0.0,-999.0,23,-99.99,,,0.00,weatherlink.com 1.10,2013-01-19 03:00:00,
2013-01-18 20:15:00,57.2,20.0,29.76,North,359,0.0,-999.0,23,-99.99,,,0.00,weatherlink.com 1.10,2013-01-19 03:15:00,
2013-01-18 20:30:00,57.6,19.0,29.77,NNW,332,1.0,-999.0,22,-99.99,,,0.00,weatherlink.com 1.10,2013-01-19 03:30:00,
2013-01-18 20:45:00,58.7,18.0,29.77,North,357,0.0,-999.0,20,-99.99,,,0.00,weatherlink.com 1.10,2013-01-19 03:45:00,
2013-01-18 21:00:00,58.5,18.0,29.76,North,357,0.0,-999.0,21,-99.99,,,0.00,weatherlink.com 1.10,2013-01-19 04:00:00,
2013-01-18 21:15:00,58.7,18.0,29.76,North,352,0.0,-999.0,20,-99.99,,,0.00,weatherlink.com 1.10,2013-01-19 04:15:00,
2013-01-18 21:30:00,58.4,19.0,29.76,North,354,0.0,-999.0,22,-99.99,,,0.00,weatherlink.com 1.10,2013-01-19 04:30:00,
2013-01-18 21:45:00,57.2,17.0,29.77,NNW,347,0.0,-999.0,21,-99.99,,,0.00,weatherlink.com 1.10,2013-01-19 04:45:00,
2013-01-18 22:15:00,59.5,17.0,29.77,North,0,6.0,-999.0,19,-99.99,,,0.00,weatherlink.com 1.10,2013-01-19 05:15:00,
2013-01-18 22:30:00,59.2,17.0,29.77,North,359,5.0,-999.0,19,-99.99,,,0.00,weatherlink.com 1.10,2013-01-19 05:30:00,
2013-01-18 22:45:00,58.9,18.0,29.77,North,0,2.0,-999.0,20,-99.99,,,0.00,weatherlink.com 1.10,2013-01-19 05:45:00,
2013-01-18 23:00:00,57.5,18.0,29.77,North,359,2.0,-999.0,21,-99.99,,,0.00,weatherlink.com 1.10,2013-01-19 06:00:00,
2013-01-18 23:15:00,58.2,16.0,29.77,North,0,5.0,-999.0,19,-99.99,,,0.00,weatherlink.com 1.10,2013-01-19 06:15:00,
2013-01-18 23:30:00,60.0,17.0,29.77,ENE,66,3.0,-999.0,19,-99.99,,,0.00,weatherlink.com 1.10,2013-01-19 06:30:00,
2013-01-18 23:45:00,60.3,16.0,29.77,ESE,107,4.0,-999.0,18,-99.99,,,0.00,weatherlink.com 1.10,2013-01-19 06:45:00,